Hourly Weather Roundup
Issued by NWS Central Illinois

Home | Current Version | Previous Version | Text Only | Print | Product List | Glossary On
Versions: 1 2 3 4 5 6 7 8 9 10 11 12 13 14 15 16 17 18 19 20 21 22 23 24 25 26 27 28 29 30 31 32 33 34 35 36 37 38 39 40 41 42 43 44 45 46 47 48 49 50
000
NZUS43 KILX 010610
HWRILX

AREA WEATHER ROUNDUP
NATIONAL WEATHER SERVICE, LINCOLN IL
100 AM CDT FRI AUG 01 2014


CITY           SKY/WX    TMP DP  RH WIND       PRES   REMARKS
BLOOMINGTON    CLEAR     63  58  83 SW5       30.09S
CHAMPAIGN      CLEAR     63  60  90 S6        30.08S
6HR MIN TEMP:  62; 6HR MAX TEMP:  78;

DECATUR        CLEAR     61  58  90 CALM      30.08S
6HR MIN TEMP:  60; 6HR MAX TEMP:  78;

FLORA          CLEAR     60  59  96 CALM      30.08F
6HR MIN TEMP:  60; 6HR MAX TEMP:  77;

GALESBURG      MOCLDY    62  60  95 CALM      30.07S
JACKSONVILLE   CLEAR     64  61  91 CALM      30.08S
6HR MIN TEMP:  64; 6HR MAX TEMP:  80;

LACON          CLEAR     62  60  93 CALM      30.05F
6HR MIN TEMP:  62; 6HR MAX TEMP:  78;

LAWRENCEVILLE  PTCLDY    64  62  93 CALM      30.08F
6HR MIN TEMP:  64; 6HR MAX TEMP:  80;

LITCHFIELD     CLEAR     65  60  84 CALM      30.07S
$$


CITY           SKY/WX    TMP DP  RH WIND       PRES   REMARKS
LINCOLN        CLEAR     63  61  93 CALM      30.05S
6HR MIN TEMP:  63; 6HR MAX TEMP:  80;

MACOMB         MOCLDY    61  60  96 CALM      30.09S
MATTOON        CLEAR     67  62  84 S5        30.07F
6HR MIN TEMP:  65; 6HR MAX TEMP:  78;

MT CARMEL AP   PTCLDY    63  61  94 CALM      30.08S
OLNEY-NOBLE AP PTCLDY    61  61 100 CALM      30.08S FOG
PARIS            N/A     59  58  98 CALM      30.08F FOG
6HR MIN TEMP:  59; 6HR MAX TEMP:  76;

PEORIA         PTCLDY    67  61  81 CALM      30.06F
6HR MIN TEMP:  66; 6HR MAX TEMP:  80;

PONTIAC        CLEAR     61  61 100 CALM      30.07S FOG
RANTOUL        CLEAR     63  60  90 CALM      30.09S
6HR MIN TEMP:  63; 6HR MAX TEMP:  77;

ROBINSON       PTCLDY    60  60  98 CALM      30.09S FOG
6HR MIN TEMP:  60; 6HR MAX TEMP:  80;

SPRINGFIELD    CLEAR     63  60  90 CALM      30.07S
6HR MIN TEMP:  63; 6HR MAX TEMP:  82;

TAYLORVILLE    CLEAR     63  61  94 CALM      30.07S
$$

...REGIONAL REPORTS...


CITY           SKY/WX    TMP DP  RH WIND       PRES   REMARKS
CHICAGO O`HARE CLEAR     67  57  70 SW5       30.04S
KANKAKEE       CLEAR     64  60  90 SW5       30.07S
MOLINE         PTCLDY    64  61  90 CALM      30.05S
MOUNT VERNON   CLEAR     61  55  82 CALM      30.08F
PITTSFIELD     CLEAR     62  59  90 CALM      30.08S
QUINCY         CLEAR     67  60  78 CALM      30.07R
ROCKFORD       CLEAR     62  58  86 S3        30.06S
$$


CITY           SKY/WX    TMP DP  RH WIND       PRES   REMARKS
BURLINGTON     LGT RAIN  68  65  90 CALM      30.06S
CEDAR RAPIDS   PTCLDY    62  60  93 S3        30.05S
DES MOINES     PTCLDY    68  61  78 CALM      30.06S
KIRKSVILLE     CLOUDY    64  60  87 S3        30.08S
OTTUMWA        PTCLDY    64  60  87 CALM      30.06S
ST LOUIS       PTCLDY    74  62  66 S6        30.07S
$$


CITY           SKY/WX    TMP DP  RH WIND       PRES   REMARKS
TERRE HAUTE    CLEAR     61  59  93 CALM      30.07F
EVANSVILLE     CLEAR     67  62  84 CALM      30.08F
INDIANAPOLIS   CLEAR     67  61  81 CALM      30.08F
LAFAYETTE      CLEAR     62  61  96 CALM      30.08S
MADISON        CLEAR     62  58  86 CALM      30.03S
MILWAUKEE      CLEAR     67  58  72 SW6       30.02F
$$





USA.gov is the U.S. government's official web portal to all federal, state and local government web resources and services.